Location: Unspecified
(0.0000°N, 0.0000°E)
Time: 11:17:15
(UTC+00:00)

S-56A Canister/Altair - Pass Details

Date: 24 November 2019
Orbit: 632 x 2500 km, 38.9° (Epoch: 13 December)

Event Time Altitude Azimuth Distance (km) Brightness Sun altitude
Rises 23:06:59 0° 320° (NW) 3,051 - -67.2°
Reaches altitude 10° 23:09:29 10° 326° (NW) 2,047 - -67.4°
Maximum altitude 23:13:49 48° 41° (NE) 821 - -67.8°
Drops below altitude 10° 23:18:16 10° 116° (ESE) 2,103 - -68.2°
Sets 23:20:51 0° 122° (ESE) 3,145 - -68.4°
